Time,TemperatureF,DewpointF,PressureIn,WindDirection,WindDirectionDegrees,WindSpeedMPH,WindSpeedGustMPH,Humidity,HourlyPrecipIn,Conditions,Clouds,dailyrainin,SolarRadiationWatts/m^2,SoftwareType,DateUTC
2013-06-26 00:01:00,59.0,59.0,-100.00,South,190,5.0,14.0,97,-99.99,,,0.01,0.120000,,2013-06-26 07:01:00,
2013-06-26 00:11:00,59.0,59.0,-100.00,South,190,5.0,14.0,97,-99.99,,,0.01,0.120000,,2013-06-26 07:11:00,
2013-06-26 00:43:00,59.0,58.0,-100.00,South,182,3.0,9.0,98,-99.99,,,0.01,0.000000,,2013-06-26 07:43:00,
2013-06-26 00:53:00,59.0,58.0,-100.00,South,182,3.0,9.0,98,-99.99,,,0.01,0.000000,,2013-06-26 07:53:00,
2013-06-26 01:01:00,59.0,58.0,-100.00,South,182,3.0,9.0,98,-99.99,,,0.01,0.000000,,2013-06-26 08:01:00,
2013-06-26 01:11:00,59.0,58.0,-100.00,South,182,3.0,9.0,98,-99.99,,,0.01,0.000000,,2013-06-26 08:11:00,
2013-06-26 01:42:00,58.0,58.0,-100.00,South,191,5.0,11.0,99,-99.99,,,0.02,0.000000,,2013-06-26 08:42:00,
2013-06-26 01:53:00,58.0,58.0,-100.00,South,191,5.0,11.0,99,-99.99,,,0.02,0.000000,,2013-06-26 08:53:00,
2013-06-26 02:01:00,58.0,58.0,-100.00,South,191,5.0,11.0,99,-99.99,,,0.02,0.000000,,2013-06-26 09:01:00,
2013-06-26 02:11:00,58.0,58.0,-100.00,South,191,5.0,11.0,99,-99.99,,,0.02,0.000000,,2013-06-26 09:11:00,
2013-06-26 02:43:00,58.0,58.0,-100.00,SSW,198,5.0,11.0,99,-99.99,,,0.02,0.000000,,2013-06-26 09:43:00,
2013-06-26 02:53:00,58.0,58.0,-100.00,SSW,198,5.0,11.0,99,-99.99,,,0.02,0.000000,,2013-06-26 09:53:00,
2013-06-26 03:01:00,58.0,58.0,-100.00,SSW,198,5.0,11.0,99,-99.99,,,0.02,0.000000,,2013-06-26 10:01:00,
2013-06-26 03:12:00,58.0,58.0,-100.00,SSW,198,5.0,11.0,99,-99.99,,,0.02,0.000000,,2013-06-26 10:12:00,
2013-06-26 03:43:00,58.0,58.0,-100.00,SSW,196,5.0,13.0,100,-99.99,,,0.02,0.000000,,2013-06-26 10:43:00,
2013-06-26 03:53:00,58.0,58.0,-100.00,SSW,196,5.0,13.0,100,-99.99,,,0.02,0.000000,,2013-06-26 10:53:00,
2013-06-26 04:02:00,58.0,58.0,-100.00,SSW,196,5.0,13.0,100,-99.99,,,0.02,0.000000,,2013-06-26 11:02:00,
2013-06-26 04:11:00,58.0,58.0,-100.00,SSW,196,5.0,13.0,100,-99.99,,,0.02,0.000000,,2013-06-26 11:11:00,
2013-06-26 04:44:00,58.0,58.0,-100.00,SSW,196,4.0,9.0,100,-99.99,,,0.02,0.000000,,2013-06-26 11:44:00,
2013-06-26 04:52:00,58.0,58.0,-100.00,SSW,196,4.0,9.0,100,-99.99,,,0.02,0.000000,,2013-06-26 11:52:00,
2013-06-26 05:02:00,58.0,58.0,-100.00,SSW,196,4.0,9.0,100,-99.99,,,0.02,0.000000,,2013-06-26 12:02:00,
2013-06-26 05:11:00,58.0,58.0,-100.00,SSW,196,4.0,9.0,100,-99.99,,,0.02,0.000000,,2013-06-26 12:11:00,
2013-06-26 05:42:00,58.0,58.0,-100.00,SSW,197,4.0,8.0,100,-99.99,,,0.01,0.000000,,2013-06-26 12:42:00,
2013-06-26 05:52:00,58.0,58.0,-100.00,SSW,197,4.0,8.0,100,-99.99,,,0.01,0.000000,,2013-06-26 12:52:00,
2013-06-26 06:02:00,58.0,58.0,-100.00,SSW,197,4.0,8.0,100,-99.99,,,0.01,0.000000,,2013-06-26 13:02:00,
2013-06-26 06:11:00,58.0,58.0,-100.00,SSW,197,4.0,8.0,100,-99.99,,,0.01,0.000000,,2013-06-26 13:11:00,
2013-06-26 06:42:00,59.0,59.0,-100.00,SSW,194,4.0,12.0,100,-99.99,,,0.01,7.210000,,2013-06-26 13:42:00,
2013-06-26 06:53:00,59.0,59.0,-100.00,SSW,194,4.0,12.0,100,-99.99,,,0.01,7.210000,,2013-06-26 13:53:00,
2013-06-26 07:02:00,59.0,59.0,-100.00,SSW,194,4.0,12.0,100,-99.99,,,0.01,7.210000,,2013-06-26 14:02:00,
2013-06-26 07:11:00,59.0,59.0,-100.00,SSW,194,4.0,12.0,100,-99.99,,,0.01,7.210000,,2013-06-26 14:11:00,
2013-06-26 07:42:00,59.0,59.0,-100.00,SSW,208,1.0,5.0,100,-99.99,,,0.01,53.930000,,2013-06-26 14:42:00,
2013-06-26 07:53:00,59.0,59.0,-100.00,SSW,208,1.0,5.0,100,-99.99,,,0.01,53.930000,,2013-06-26 14:53:00,
2013-06-26 08:02:00,59.0,59.0,-100.00,SSW,208,1.0,5.0,100,-99.99,,,0.01,53.930000,,2013-06-26 15:02:00,
2013-06-26 08:11:00,59.0,59.0,-100.00,SSW,208,1.0,5.0,100,-99.99,,,0.01,53.930000,,2013-06-26 15:11:00,
2013-06-26 08:44:00,60.0,60.0,-100.00,South,180,1.0,3.0,100,-99.99,,,0.01,138.649994,,2013-06-26 15:44:00,
2013-06-26 08:53:00,60.0,60.0,-100.00,South,180,1.0,3.0,100,-99.99,,,0.01,138.649994,,2013-06-26 15:53:00,
2013-06-26 09:01:00,60.0,60.0,-100.00,South,180,1.0,3.0,100,-99.99,,,0.01,138.649994,,2013-06-26 16:01:00,
2013-06-26 09:11:00,60.0,60.0,-100.00,South,180,1.0,3.0,100,-99.99,,,0.01,138.649994,,2013-06-26 16:11:00,
2013-06-26 09:43:00,63.0,62.0,-100.00,SW,223,2.0,6.0,96,-99.99,,,0.01,286.369995,,2013-06-26 16:43:00,
2013-06-26 09:52:00,63.0,62.0,-100.00,SW,223,2.0,6.0,96,-99.99,,,0.01,286.369995,,2013-06-26 16:52:00,
2013-06-26 10:01:00,63.0,62.0,-100.00,SW,223,2.0,6.0,96,-99.99,,,0.01,286.369995,,2013-06-26 17:01:00,
2013-06-26 10:11:00,63.0,62.0,-100.00,SW,223,2.0,6.0,96,-99.99,,,0.01,286.369995,,2013-06-26 17:11:00,
2013-06-26 10:43:00,64.0,61.0,-100.00,WSW,248,2.0,7.0,90,-99.99,,,0.01,405.029999,,2013-06-26 17:43:00,
2013-06-26 10:52:00,64.0,61.0,-100.00,WSW,248,2.0,7.0,90,-99.99,,,0.01,405.029999,,2013-06-26 17:52:00,
2013-06-26 11:01:00,64.0,61.0,-100.00,WSW,248,2.0,7.0,90,-99.99,,,0.01,405.029999,,2013-06-26 18:01:00,
2013-06-26 11:11:00,64.0,61.0,-100.00,WSW,248,2.0,7.0,90,-99.99,,,0.01,405.029999,,2013-06-26 18:11:00,
2013-06-26 11:43:00,65.0,61.0,-100.00,SW,230,2.0,6.0,86,-99.99,,,0.01,369.929993,,2013-06-26 18:43:00,
2013-06-26 11:52:00,65.0,61.0,-100.00,SW,230,2.0,6.0,86,-99.99,,,0.01,369.929993,,2013-06-26 18:52:00,
2013-06-26 12:01:00,65.0,61.0,-100.00,SW,230,2.0,6.0,86,-99.99,,,0.01,369.929993,,2013-06-26 19:01:00,
2013-06-26 12:11:00,65.0,61.0,-100.00,SW,230,2.0,6.0,86,-99.99,,,0.01,369.929993,,2013-06-26 19:11:00,
2013-06-26 12:42:00,63.0,60.0,-100.00,SSW,205,5.0,15.0,92,-99.99,,,0.00,529.500000,,2013-06-26 19:42:00,
2013-06-26 12:52:00,63.0,60.0,-100.00,SSW,205,5.0,15.0,92,-99.99,,,0.00,529.500000,,2013-06-26 19:52:00,
2013-06-26 13:01:00,63.0,60.0,-100.00,SSW,205,5.0,15.0,92,-99.99,,,0.00,529.500000,,2013-06-26 20:01:00,
2013-06-26 13:12:00,63.0,60.0,-100.00,SSW,205,5.0,15.0,92,-99.99,,,0.00,529.500000,,2013-06-26 20:12:00,
2013-06-26 13:43:00,66.0,62.0,-100.00,SW,220,4.0,15.0,87,-99.99,,,0.00,764.500000,,2013-06-26 20:43:00,
2013-06-26 13:52:00,66.0,62.0,-100.00,SW,220,4.0,15.0,87,-99.99,,,0.00,764.500000,,2013-06-26 20:52:00,
2013-06-26 14:01:00,66.0,62.0,-100.00,SW,220,4.0,15.0,87,-99.99,,,0.00,764.500000,,2013-06-26 21:01:00,
2013-06-26 14:11:00,66.0,62.0,-100.00,SW,220,4.0,15.0,87,-99.99,,,0.00,764.500000,,2013-06-26 21:11:00,
2013-06-26 14:43:00,65.0,61.0,-100.00,SW,224,5.0,16.0,86,-99.99,,,0.00,643.739990,,2013-06-26 21:43:00,
2013-06-26 14:52:00,65.0,61.0,-100.00,SW,224,5.0,16.0,86,-99.99,,,0.00,643.739990,,2013-06-26 21:52:00,
2013-06-26 15:01:00,65.0,61.0,-100.00,SW,224,5.0,16.0,86,-99.99,,,0.00,643.739990,,2013-06-26 22:01:00,
2013-06-26 15:11:00,65.0,61.0,-100.00,SW,224,5.0,16.0,86,-99.99,,,0.00,643.739990,,2013-06-26 22:11:00,
2013-06-26 15:43:00,67.0,61.0,-100.00,SW,235,4.0,11.0,82,-99.99,,,0.00,387.480011,,2013-06-26 22:43:00,
2013-06-26 15:52:00,67.0,61.0,-100.00,SW,235,4.0,11.0,82,-99.99,,,0.00,387.480011,,2013-06-26 22:52:00,
2013-06-26 16:01:00,67.0,61.0,-100.00,SW,235,4.0,11.0,82,-99.99,,,0.00,387.480011,,2013-06-26 23:01:00,
2013-06-26 16:11:00,67.0,61.0,-100.00,SW,235,4.0,11.0,82,-99.99,,,0.00,387.480011,,2013-06-26 23:11:00,
2013-06-26 16:43:00,68.0,61.0,-100.00,SW,222,3.0,12.0,79,-99.99,,,0.00,481.959991,,2013-06-26 23:43:00,
2013-06-26 16:53:00,68.0,61.0,-100.00,SW,222,3.0,12.0,79,-99.99,,,0.00,481.959991,,2013-06-26 23:53:00,
2013-06-26 17:01:00,68.0,61.0,-100.00,SW,222,3.0,12.0,79,-99.99,,,0.00,481.959991,,2013-06-27 00:01:00,
2013-06-26 17:11:00,68.0,61.0,-100.00,SW,222,3.0,12.0,79,-99.99,,,0.00,481.959991,,2013-06-27 00:11:00,
2013-06-26 17:42:00,68.0,61.0,-100.00,SW,216,4.0,14.0,77,-99.99,,,0.00,508.109985,,2013-06-27 00:42:00,
2013-06-26 17:53:00,68.0,61.0,-100.00,SW,216,4.0,14.0,77,-99.99,,,0.00,508.109985,,2013-06-27 00:53:00,
2013-06-26 18:01:00,68.0,61.0,-100.00,SW,216,4.0,14.0,77,-99.99,,,0.00,508.109985,,2013-06-27 01:01:00,
2013-06-26 18:11:00,68.0,61.0,-100.00,SW,216,4.0,14.0,77,-99.99,,,0.00,508.109985,,2013-06-27 01:11:00,
2013-06-26 18:42:00,65.0,59.0,-100.00,SW,215,3.0,9.0,82,-99.99,,,0.00,198.270004,,2013-06-27 01:42:00,
2013-06-26 18:53:00,65.0,59.0,-100.00,SW,215,3.0,9.0,82,-99.99,,,0.00,198.270004,,2013-06-27 01:53:00,
2013-06-26 19:01:00,65.0,59.0,-100.00,SW,215,3.0,9.0,82,-99.99,,,0.00,198.270004,,2013-06-27 02:01:00,
2013-06-26 19:11:00,65.0,59.0,-100.00,SW,215,3.0,9.0,82,-99.99,,,0.00,198.270004,,2013-06-27 02:11:00,
2013-06-26 19:42:00,63.0,59.0,-100.00,SW,223,3.0,7.0,87,-99.99,,,0.00,126.559998,,2013-06-27 02:42:00,
2013-06-26 19:52:00,63.0,59.0,-100.00,SW,223,3.0,7.0,87,-99.99,,,0.00,126.559998,,2013-06-27 02:52:00,
2013-06-26 20:02:00,63.0,59.0,-100.00,SW,223,3.0,7.0,87,-99.99,,,0.00,126.559998,,2013-06-27 03:02:00,
2013-06-26 20:11:00,63.0,59.0,-100.00,SW,223,3.0,7.0,87,-99.99,,,0.00,126.559998,,2013-06-27 03:11:00,
2013-06-26 20:42:00,63.0,60.0,-100.00,SW,222,2.0,8.0,90,-99.99,,,0.00,11.970000,,2013-06-27 03:42:00,
2013-06-26 20:52:00,63.0,60.0,-100.00,SW,222,2.0,8.0,90,-99.99,,,0.00,11.970000,,2013-06-27 03:52:00,
2013-06-26 21:01:00,63.0,60.0,-100.00,SW,222,2.0,8.0,90,-99.99,,,0.00,11.970000,,2013-06-27 04:01:00,
2013-06-26 21:11:00,63.0,60.0,-100.00,SW,222,2.0,8.0,90,-99.99,,,0.00,11.970000,,2013-06-27 04:11:00,
2013-06-26 21:42:00,62.0,60.0,-100.00,SSW,211,2.0,5.0,92,-99.99,,,0.00,1.160000,,2013-06-27 04:42:00,
2013-06-26 21:52:00,62.0,60.0,-100.00,SSW,211,2.0,5.0,92,-99.99,,,0.00,1.160000,,2013-06-27 04:52:00,
2013-06-26 22:02:00,62.0,60.0,-100.00,SSW,211,2.0,5.0,92,-99.99,,,0.00,1.160000,,2013-06-27 05:02:00,
2013-06-26 22:12:00,62.0,60.0,-100.00,SSW,211,2.0,5.0,92,-99.99,,,0.00,1.160000,,2013-06-27 05:12:00,
2013-06-26 22:42:00,62.0,60.0,-100.00,SSW,198,2.0,5.0,92,-99.99,,,0.00,0.230000,,2013-06-27 05:42:00,
2013-06-26 22:53:00,62.0,60.0,-100.00,SSW,198,2.0,5.0,92,-99.99,,,0.00,0.230000,,2013-06-27 05:53:00,
2013-06-26 23:01:00,62.0,60.0,-100.00,SSW,198,2.0,5.0,92,-99.99,,,0.00,0.230000,,2013-06-27 06:01:00,
2013-06-26 23:12:00,62.0,60.0,-100.00,SSW,198,2.0,5.0,92,-99.99,,,0.00,0.230000,,2013-06-27 06:12:00,
2013-06-26 23:43:00,62.0,60.0,-100.00,NNW,342,1.0,2.0,93,-99.99,,,0.00,0.230000,,2013-06-27 06:43:00,
2013-06-26 23:53:00,62.0,60.0,-100.00,NNW,342,1.0,2.0,93,-99.99,,,0.00,0.230000,,2013-06-27 06:53:00,